TimeEDT,TemperatureF,Dew PointF,Humidity,Sea Level PressureIn,VisibilityMPH,Wind Direction,Wind SpeedMPH,Gust SpeedMPH,PrecipitationIn,Events,Conditions,WindDirDegrees,DateUTC
12:22 AM,48.2,46.4,93,30.07,8.0,Calm,Calm,-,0.05,Rain,Light Rain,0,2012-10-08 04:22:00
12:47 AM,48.2,46.4,93,30.07,10.0,West,5.8,-,0.05,,Overcast,260,2012-10-08 04:47:00
12:54 AM,48.9,46.0,90,30.09,10.0,West,6.9,-,0.05,,Overcast,270,2012-10-08 04:54:00
1:04 AM,48.2,44.6,87,30.09,10.0,West,8.1,-,N/A,,Overcast,280,2012-10-08 05:04:00
1:11 AM,48.2,44.6,87,30.10,10.0,WNW,8.1,-,N/A,,Overcast,290,2012-10-08 05:11:00
1:27 AM,48.2,46.4,93,30.10,10.0,West,5.8,-,N/A,,Overcast,270,2012-10-08 05:27:00
1:42 AM,48.2,44.6,87,30.10,10.0,West,5.8,-,0.00,,Overcast,270,2012-10-08 05:42:00
1:54 AM,48.9,45.0,86,30.10,10.0,West,5.8,-,0.00,,Mostly Cloudy,280,2012-10-08 05:54:00
2:54 AM,46.9,43.0,86,30.10,10.0,Calm,Calm,-,N/A,,Scattered Clouds,0,2012-10-08 06:54:00
3:54 AM,45.0,42.1,90,30.10,10.0,Calm,Calm,-,N/A,,Clear,0,2012-10-08 07:54:00
4:54 AM,44.1,39.9,85,30.12,3.0,Calm,Calm,-,N/A,,Clear,0,2012-10-08 08:54:00
5:54 AM,43.0,41.0,93,30.15,10.0,Calm,Calm,-,N/A,,Clear,0,2012-10-08 09:54:00
6:54 AM,43.0,39.9,89,30.17,10.0,Calm,Calm,-,N/A,,Clear,0,2012-10-08 10:54:00
7:54 AM,44.1,43.0,96,30.19,7.0,Calm,Calm,-,N/A,,Clear,0,2012-10-08 11:54:00
8:52 AM,48.2,44.6,87,30.22,10.0,West,4.6,-,N/A,,Partly Cloudy,260,2012-10-08 12:52:00
8:54 AM,48.9,44.1,83,30.23,10.0,WSW,4.6,-,N/A,,Partly Cloudy,250,2012-10-08 12:54:00
9:54 AM,51.1,44.1,77,30.24,10.0,WNW,5.8,-,N/A,,Scattered Clouds,300,2012-10-08 13:54:00
10:52 AM,53.6,41.0,62,30.25,10.0,North,5.8,-,N/A,,Mostly Cloudy,350,2012-10-08 14:52:00
10:54 AM,53.1,42.1,66,30.25,10.0,NW,4.6,-,N/A,,Mostly Cloudy,320,2012-10-08 14:54:00
11:54 AM,54.0,41.0,62,30.26,10.0,WNW,5.8,-,N/A,,Mostly Cloudy,290,2012-10-08 15:54:00
12:01 PM,55.4,41.0,58,30.26,10.0,NW,6.9,-,N/A,,Scattered Clouds,310,2012-10-08 16:01:00
12:54 PM,54.0,39.9,59,30.26,10.0,West,3.5,-,N/A,,Overcast,280,2012-10-08 16:54:00
1:54 PM,54.0,41.0,62,30.26,10.0,NW,4.6,-,N/A,,Overcast,320,2012-10-08 17:54:00
2:54 PM,55.9,41.0,57,30.28,10.0,Calm,Calm,-,N/A,,Overcast,0,2012-10-08 18:54:00
3:54 PM,57.0,42.1,57,30.28,10.0,Calm,Calm,-,N/A,,Overcast,0,2012-10-08 19:54:00
4:54 PM,55.0,39.9,57,30.28,10.0,North,3.5,-,N/A,,Partly Cloudy,10,2012-10-08 20:54:00
5:54 PM,55.0,41.0,59,30.29,10.0,East,3.5,-,N/A,,Clear,100,2012-10-08 21:54:00
6:54 PM,51.1,43.0,74,30.32,10.0,ESE,3.5,-,N/A,,Clear,110,2012-10-08 22:54:00
7:54 PM,51.1,44.1,77,30.32,10.0,ESE,4.6,-,N/A,,Clear,110,2012-10-08 23:54:00
8:54 PM,51.1,43.0,74,30.32,10.0,Calm,Calm,-,N/A,,Clear,0,2012-10-09 00:54:00
9:54 PM,50.0,44.1,80,30.33,10.0,Calm,Calm,-,N/A,,Clear,0,2012-10-09 01:54:00
10:54 PM,48.9,44.1,83,30.34,10.0,Calm,Calm,-,N/A,,Clear,0,2012-10-09 02:54:00
11:54 PM,48.0,44.1,86,30.34,10.0,NNE,3.5,-,N/A,,Overcast,30,2012-10-09 03:54:00